Regional Weather Roundup
Issued by NWS Goodland, KS

Home | Current Version | Previous Version | Text Only | Print | Product List | Glossary On
Versions: 1 2 3 4 5 6 7 8 9 10 11 12 13 14 15 16 17 18 19 20 21 22 23 24 25 26 27 28 29 30 31 32 33 34 35 36 37 38 39 40 41 42 43 44 45 46 47 48 49 50
000
ASUS43 KGLD 050308
RWRGLD

GOODLAND FORECAST AREA HOURLY WEATHER ROUNDUP
NATIONAL WEATHER SERVICE GOODLAND KS
900 PM MDT MON MAY 04 2015

...OFFICIAL OBSERVATIONS...

CITY           SKY/WX    TMP DP  RH WIND       PRES   REMARKS
GOODLAND KS    CLOUDY    52  45  77 NE13      30.11R
HILL CITY KS   CLOUDY    59  53  80 E12       30.11R
IMPERIAL NEB   CLOUDY    49  45  86 E7        30.11R
MCCOOK NEB     CLOUDY    54  50  86 NE14      30.10R
AKRON CO       CLOUDY    46  45  96 NE15      30.09R FOG
BURLINGTON CO  CLOUDY    53  47  79 E14       30.11S
LIMON CO       LGT RAIN  50  48  93 E15       30.10R
$$

...UNOFFICIAL OBSERVATIONS...

CITY           SKY/WX    TMP DP  RH WIND       PRES   REMARKS
COLBY KS       MOCLDY    52  50  93 NE10      30.13R
GOVE KS          N/A     59  32  36 MISG        N/A
LENORA KS        N/A     56  32  40 MISG        N/A
NORTON KS      CLOUDY    55  48  76 NE9       30.10
SHARON SPRINGS   N/A     54  51  90 MISG        N/A
KIT CARSON CO    N/A     53  50  89 MISG        N/A
YUMA CO          N/A     47  44  88 NE12        N/A
$$



USA.gov is the U.S. government's official web portal to all federal, state and local government web resources and services.